Location: Unspecified
(0.0000°N, 0.0000°E)
Time: 15:02:14
(UTC+00:00)

Courier 1B Rocket - All Passes

Search period start: 03 March 2015 00:00
Search period end: 13 March 2015 00:00
Orbit: 921 x 1202 km, 28.2° (Epoch: 01 March)

Date Brightness Start Highest point End Pass type
(mag) Time Alt. Az. Time Alt. Az. Time Alt. Az.
03 Mar - 02:23:26 10° N 02:26:05 12° NNE 02:28:55 10° NE visible
03 Mar - 04:14:16 10° NW 04:20:51 35° NNE 04:27:07 10° E visible
03 Mar - 06:07:34 10° WNW 06:14:38 70° SSW 06:21:12 10° SE daylight
03 Mar - 08:03:44 10° WSW 08:08:23 19° SSW 08:12:43 10° SSE daylight
03 Mar - 15:43:40 10° SSW 15:49:05 27° SSE 15:54:53 10° E daylight
03 Mar - 17:35:55 10° WSW 17:42:47 86° NNW 17:50:12 10° ENE daylight
03 Mar - 19:30:48 10° W 19:36:49 27° NNW 19:43:00 10° NNE visible
04 Mar - 03:13:35 10° NNW 03:19:29 25° NNE 03:25:14 10° ENE visible
04 Mar - 05:06:13 10° NW 05:13:33 79° NNE 05:20:22 10° ESE visible
04 Mar - 07:01:16 10° W 07:07:12 29° SSW 07:12:44 10° SSE daylight
04 Mar - 14:43:47 10° SSW 14:47:51 18° SSE 14:52:17 10° ESE daylight
04 Mar - 16:35:07 10° SW 16:41:41 64° SSE 16:48:46 10° ENE daylight
04 Mar - 18:29:00 10° W 18:35:27 38° NNW 18:42:15 10° NE visible
04 Mar - 20:26:43 10° NW 20:30:10 13° NNW 20:33:25 10° N visible
05 Mar - 02:13:07 10° NNW 02:17:57 18° NNE 02:22:51 10° ENE visible
05 Mar - 04:05:05 10° NW 04:12:23 54° NNE 04:19:13 10° ESE visible
05 Mar - 05:59:15 10° W 06:06:05 45° SSW 06:12:26 10° SE daylight
05 Mar - 07:57:16 10° SW 08:00:10 13° SSW 08:02:47 10° S daylight
05 Mar - 13:44:49 10° S 13:46:33 11° SSE 13:48:33 10° SE daylight
05 Mar - 15:34:35 10° SW 15:40:37 41° SSE 15:47:05 10° E daylight
05 Mar - 17:27:37 10° WSW 17:34:14 56° NNW 17:41:19 10° NE daylight
05 Mar - 19:23:45 10° WNW 19:28:33 18° NNW 19:33:19 10° NNE visible
06 Mar - 01:13:04 10° N 01:16:17 13° NNE 01:19:42 10° NE night (unlit)
06 Mar - 03:04:09 10° NW 03:11:05 37° NNE 03:17:43 10° E visible
06 Mar - 04:57:34 10° WNW 05:04:58 69° SSW 05:11:50 10° SE visible
06 Mar - 06:53:53 10° WSW 06:58:50 20° SSW 07:03:24 10° SSE daylight
06 Mar - 14:34:20 10° SSW 14:39:32 27° SSE 14:45:03 10° E daylight
06 Mar - 16:26:34 10° WSW 16:33:08 84° NNW 16:40:12 10° ENE daylight
06 Mar - 18:21:29 10° W 18:27:05 25° NNW 18:32:51 10° NNE visible
07 Mar - 02:03:27 10° NNW 02:09:40 26° NNE 02:15:48 10° E visible
07 Mar - 03:56:10 10° WNW 04:03:48 82° NNE 04:10:57 10° ESE visible
07 Mar - 05:51:20 10° W 05:57:35 30° SSW 06:03:23 10° SSE daylight
07 Mar - 13:34:26 10° SSW 13:38:22 17° SSE 13:42:33 10° ESE daylight
07 Mar - 15:25:47 10° SW 15:32:07 64° SSE 15:38:52 10° ENE daylight
07 Mar - 17:19:42 10° W 17:25:46 36° NNW 17:32:11 10° NE daylight
07 Mar - 19:17:41 10° NW 19:20:25 12° NNW 19:22:59 10° N visible
08 Mar - 01:02:59 10° NNW 01:08:07 19° NNE 01:13:22 10° ENE night (unlit)
08 Mar - 02:55:01 10° NW 03:02:34 56° NNE 03:09:45 10° ESE visible
08 Mar - 04:49:15 10° W 04:56:23 45° SSW 05:03:01 10° SE visible
08 Mar - 06:47:15 10° SW 06:50:35 13° SSW 06:53:34 10° S daylight
08 Mar - 12:35:25 10° S 12:37:04 11° SSE 12:38:58 10° SE daylight
08 Mar - 14:25:15 10° SW 14:31:07 41° SSE 14:37:17 10° E daylight
08 Mar - 16:18:19 10° WSW 16:24:37 53° NNW 16:31:20 10° NE daylight
08 Mar - 18:14:34 10° WNW 18:18:51 17° NNW 18:23:06 10° NNE daylight
09 Mar - 00:02:57 10° N 00:06:26 14° NNE 00:10:10 10° NE night (unlit)
09 Mar - 01:54:05 10° NW 02:01:13 39° NNE 02:08:12 10° E visible
09 Mar - 03:47:32 10° WNW 03:55:11 68° SSW 04:02:22 10° SE visible
09 Mar - 05:43:54 10° WSW 05:49:11 20° SSW 05:54:04 10° SSE visible
09 Mar - 13:24:57 10° SSW 13:30:04 27° SSE 13:35:23 10° E daylight
09 Mar - 15:17:14 10° WSW 15:23:35 81° NNW 15:30:19 10° ENE daylight
09 Mar - 17:12:16 10° WNW 17:17:26 23° NNW 17:22:45 10° NNE daylight
10 Mar - 00:53:24 10° NNW 00:59:47 28° NNE 01:06:12 10° E night (unlit)
10 Mar - 02:46:07 10° WNW 02:53:57 84° NNE 03:01:25 10° ESE visible
10 Mar - 04:41:19 10° W 04:47:51 30° SSW 04:53:57 10° SSE visible
10 Mar - 12:24:58 10° SSW 12:28:55 17° SSE 12:33:02 10° ESE daylight
10 Mar - 14:16:26 10° SW 14:22:38 66° SSE 14:29:06 10° ENE daylight
10 Mar - 16:10:28 10° W 16:16:12 34° NNW 16:22:12 10° NE daylight
10 Mar - 18:09:04 10° NNW 18:10:46 11° NNW 18:12:14 10° N daylight
10 Mar - 23:53:00 10° NNW 23:58:14 20° NNE 00:03:40 10° ENE night (unlit)
11 Mar - 01:44:58 10° NW 01:52:39 58° NNE 02:00:09 10° ESE visible
11 Mar - 03:39:13 10° W 03:46:34 45° SSW 03:53:31 10° SE visible
11 Mar - 05:37:10 10° SW 05:40:55 14° SSW 05:44:18 10° S visible
11 Mar - 11:25:42 10° S 11:27:36 11° SSE 11:29:44 10° SE daylight
11 Mar - 13:15:50 10° SW 13:21:40 42° SSE 13:27:38 10° E daylight
11 Mar - 15:09:02 10° WSW 15:15:07 50° NNW 15:21:28 10° NE daylight
11 Mar - 17:05:31 10° NW 17:09:15 15° NNW 17:12:53 10° NNE daylight
11 Mar - 22:53:04 10° N 22:56:34 14° NNE 23:00:23 10° NE night (unlit)
12 Mar - 00:44:06 10° NW 00:51:18 40° NNE 00:58:30 10° E night (unlit)
12 Mar - 02:37:30 10° WNW 02:45:17 67° SSW 02:52:46 10° SE visible
12 Mar - 04:33:52 10° WSW 04:39:26 21° SSW 04:44:37 10° SSE visible
12 Mar - 12:15:27 10° SSW 12:20:38 27° SSE 12:25:53 10° E daylight
12 Mar - 14:07:53 10° WSW 14:14:08 78° NNW 14:20:35 10° NE daylight
12 Mar - 16:03:05 10° WNW 16:07:54 22° NNW 16:12:45 10° NNE daylight
12 Mar - 23:43:29 10° NNW 23:49:51 28° NNE 23:56:25 10° E night (unlit)
